FW3266 Weather Reports


Display with metric or nautical units.
time (UTC)temp
F
wind
direction
speed
MPH
gust
MPH
rain 1hr
in
rain 24hr
in
rain mn
in
humidity
%
barometer
mb
20260503014642 51 203 0.0 3.0 0.00 0.00 0.00 85 1011.6
20260503014134 51 203 1.0 2.0 0.00 0.00 0.00 85 1011.6
20260503013631 51 203 0.0 5.0 0.00 0.00 0.00 84 1011.6
20260503013130 51 203 2.0 5.0 0.00 0.00 0.00 84 1011.6
20260503012857 51 201 2.0 6.0 0.00 0.00 0.00 83 1011.5
20260503012120 51 206 2.0 6.0 0.00 0.00 0.00 83 1011.5
20260503011618 51 181 2.0 6.0 0.00 0.00 0.00 82 1011.6
20260503011114 51 206 2.0 6.0 0.00 0.00 0.00 82 1011.6
20260503010615 52 191 2.0 7.0 0.00 0.00 0.00 81 1011.6
20260503010107 52 195 2.0 7.0 0.00 0.00 0.00 80 1011.5
20260503005609 52 179 2.0 6.0 0.00 0.00 0.00 80 1011.5
20260503005103 52 179 3.0 6.0 0.00 0.00 0.00 80 1011.5
20260503004558 52 197 2.0 6.0 0.00 0.00 0.00 79 1011.5
20260503004043 52 183 3.0 5.0 0.00 0.00 0.00 79 1011.5
20260503003540 52 199 2.0 4.0 0.00 0.00 0.00 79 1011.6
20260503003042 52 200 3.0 5.0 0.00 0.00 0.00 79 1011.7
20260503002800 52 198 2.0 5.0 0.00 0.00 0.00 79 1011.7
20260503002014 52 195 1.0 4.0 0.00 0.00 0.00 79 1011.7
20260503001510 52 195 2.0 5.0 0.00 0.00 0.00 78 1011.5
20260503001009 52 197 2.0 5.0 0.00 0.00 0.00 79 1011.6
20260503000827 52 200 1.0 3.0 0.00 0.00 0.00 78 1011.6
20260503000003 52 201 1.0 3.0 0.00 0.00 0.00 78 1011.7
20260502235459 52 203 1.0 3.0 0.00 0.00 0.00 78 1011.6
20260502234955 52 203 1.0 3.0 0.00 0.00 0.00 78 1011.7
20260502234449 52 203 1.0 4.0 0.00 0.00 0.00 77 1011.6
20260502233945 52 210 2.0 4.0 0.00 0.00 0.00 77 1011.6
20260502233436 52 215 1.0 3.0 0.00 0.00 0.00 77 1011.5
20260502232931 52 215 2.0 3.0 0.00 0.00 0.00 77 1011.6
20260502232426 53 216 1.0 4.0 0.00 0.00 0.00 77 1011.6
20260502231923 53 200 2.0 4.0 0.00 0.00 0.00 76 1011.6
20260502231422 53 205 2.0 4.0 0.00 0.00 0.00 76 1011.7
20260502231150 53 210 2.0 4.0 0.00 0.00 0.00 76 1011.6
20260502230423 53 236 2.0 5.0 0.00 0.00 0.00 76 1011.7
20260502225902 53 243 2.0 5.0 0.00 0.00 0.00 76 1011.7
20260502225405 53 197 2.0 5.0 0.00 0.00 0.00 76 1011.6
20260502224901 53 209 2.0 5.0 0.00 0.00 0.00 76 1011.5
20260502224432 53 260 3.0 7.0 0.00 0.00 0.00 75 1011.3
20260502224421 53 210 2.0 7.0 0.00 0.00 0.00 76 1011.4
20260502223641 53 218 4.0 6.0 0.00 0.00 0.00 75 1011.2
20260502222855 53 226 3.0 6.0 0.00 0.00 0.00 75 1011.3
20260502222349 53 243 3.0 6.0 0.00 0.00 0.00 75 1011.3
20260502221847 53 204 2.0 7.0 0.00 0.00 0.00 75 1011.3
20260502221343 53 199 3.0 7.0 0.00 0.00 0.00 74 1011.2
20260502220844 54 219 2.0 6.0 0.00 0.00 0.00 75 1011.3
20260502220340 54 305 1.0 5.0 0.00 0.00 0.00 75 1011.3
20260502215841 54 306 2.0 5.0 0.00 0.00 0.00 75 1011.3
20260502215559 54 308 2.0 8.0 0.00 0.00 0.00 75 1011.3
20260502214834 54 212 1.0 8.0 0.00 0.00 0.00 75 1011.4
20260502214322 54 229 2.0 8.0 0.00 0.00 0.00 74 1011.2
20260502213822 54 182 3.0 8.0 0.00 0.00 0.00 74 1010.9
20260502213316 54 203 3.0 8.0 0.00 0.00 0.00 75 1011.1
20260502212812 54 180 4.0 14.0 0.00 0.00 0.00 74 1011.3
20260502212308 54 225 6.0 14.0 0.00 0.00 0.00 74 1011.4
20260502212038 54 208 5.0 8.0 0.00 0.00 0.00 74 1011.5
20260502211301 54 176 4.0 8.0 0.00 0.00 0.00 73 1011.4
20260502210757 54 212 4.0 7.0 0.00 0.00 0.00 73 1011.4
20260502210249 54 181 4.0 11.0 0.00 0.00 0.00 73 1011.5
20260502205751 54 201 4.0 11.0 0.00 0.00 0.00 73 1011.5
20260502205306 54 228 6.0 11.0 0.00 0.00 0.00 72 1011.5
20260502205259 54 177 4.0 11.0 0.00 0.00 0.00 73 1011.5
20260502204237 55 244 4.0 12.0 0.00 0.00 0.00 71 1011.5
20260502203736 55 203 4.0 12.0 0.00 0.00 0.00 71 1011.7
20260502203232 55 221 3.0 11.0 0.00 0.00 0.00 70 1011.6
20260502202727 55 186 5.0 8.0 0.00 0.00 0.00 70 1011.6
20260502202222 56 204 4.0 10.0 0.00 0.00 0.00 68 1011.6
20260502201716 56 206 2.0 10.0 0.00 0.00 0.00 66 1011.7
20260502201212 56 243 2.0 6.0 0.00 0.00 0.00 65 1011.7
20260502200945 56 248 2.0 5.0 0.00 0.00 0.00 63 1011.7
20260502200206 57 246 2.0 7.0 0.00 0.00 0.00 62 1011.7
20260502195706 57 241 3.0 7.0 0.00 0.00 0.00 63 1011.7
20260502195200 57 234 4.0 6.0 0.00 0.00 0.00 63 1011.7
20260502194651 56 290 3.0 9.0 0.00 0.00 0.00 60 1011.7
20260502194430 57 193 3.0 9.0 0.00 0.00 0.00 60 1011.9
20260502193646 57 200 4.0 8.0 0.00 0.00 0.00 63 1011.8
20260502193142 57 210 4.0 10.0 0.00 0.00 0.00 62 1011.9
20260502192642 57 248 4.0 10.0 0.00 0.00 0.00 60 1011.9
20260502192137 57 217 2.0 8.0 0.00 0.00 0.00 60 1011.9
20260502191635 57 257 3.0 8.0 0.00 0.00 0.00 59 1011.9
20260502191130 58 259 3.0 6.0 0.00 0.00 0.00 57 1011.8
20260502190902 58 241 3.0 6.0 0.00 0.00 0.00 55 1011.9
20260502190123 58 243 3.0 6.0 0.00 0.00 0.00 54 1011.9
20260502185624 58 245 3.0 7.0 0.00 0.00 0.00 54 1012.1
20260502185119 58 257 3.0 7.0 0.00 0.00 0.00 53 1012.1
20260502184618 59 245 2.0 8.0 0.00 0.00 0.00 53 1012.3
20260502184112 58 174 3.0 10.0 0.00 0.00 0.00 58 1012.2
20260502183615 58 214 2.0 10.0 0.00 0.00 0.00 57 1012.1
20260502183112 58 210 6.0 12.0 0.00 0.00 0.00 59 1012.2
20260502182611 58 210 5.0 12.0 0.00 0.00 0.00 56 1012.1
20260502182104 58 243 5.0 12.0 0.00 0.00 0.00 57 1012.1
20260502181605 58 203 4.0 11.0 0.00 0.00 0.00 57 1012.3
20260502181058 58 201 4.0 13.0 0.00 0.00 0.00 56 1012.4
20260502180551 58 235 7.0 13.0 0.00 0.00 0.00 53 1012.4
20260502180105 58 190 9.0 19.0 0.00 0.00 0.00 52 1012.1
20260502170514 55 65 4.0 7.0 0.00 0.00 0.00 76 1012.0
20260502163937 55 70 3.0 6.0 0.00 0.00 0.00 77 1012.3
20260502163432 55 74 4.0 6.0 0.00 0.00 0.00 77 1012.4
20260502163211 55 58 2.0 6.0 0.00 0.00 0.00 76 1012.5
20260502162702 55 70 5.0 6.0 0.00 0.00 0.00 76 1012.4
20260502161922 55 67 4.0 5.0 0.00 0.00 0.00 77 1012.4
20260502161421 55 72 3.0 5.0 0.00 0.00 0.00 77 1012.6
20260502161150 55 76 2.0 6.0 0.00 0.00 0.00 78 1012.8
20260502160412 54 75 3.0 6.0 0.00 0.00 0.00 79 1012.9
20260502151829 56 70 2.0 6.0 0.00 0.00 0.00 72 1013.4
20260502151326 57 60 3.0 6.0 0.00 0.00 0.00 71 1013.3
20260502151056 59 71 3.0 6.0 0.00 0.00 0.00 67 1013.3
20260502150326 59 109 2.0 5.0 0.00 0.00 0.00 66 1013.1
20260502130655 54 229 2.0 7.0 0.00 0.00 0.00 73 1013.7
20260502130158 54 243 2.0 11.0 0.00 0.00 0.00 73 1013.6
20260502123641 53 240 3.0 6.0 0.00 0.00 0.00 74 1013.3
20260502123134 53 299 3.0 6.0 0.00 0.00 0.00 75 1013.3
20260502122634 52 248 2.0 8.0 0.00 0.00 0.00 76 1013.2
20260502122128 51 226 4.0 8.0 0.00 0.00 0.00 77 1013.1
20260502121626 51 229 3.0 7.0 0.00 0.00 0.00 77 1013.2
20260502121113 51 245 2.0 5.0 0.00 0.00 0.00 76 1013.3
20260502120838 50 227 2.0 4.0 0.00 0.00 0.00 76 1013.0
20260502120105 50 226 2.0 5.0 0.00 0.00 0.00 76 1013.0
20260502115600 50 236 2.0 6.0 0.00 0.00 0.00 76 1012.9
20260502115059 50 238 3.0 6.0 0.00 0.00 0.00 76 1013.0
20260502114555 50 231 2.0 5.0 0.00 0.00 0.00 76 1012.9
20260502114325 50 226 2.0 5.0 0.00 0.00 0.00 76 1012.9
20260502113549 50 212 2.0 4.0 0.00 0.00 0.00 76 1013.1
20260502113050 50 212 2.0 4.0 0.00 0.00 0.00 76 1013.0
20260502112537 50 212 2.0 4.0 0.00 0.00 0.00 76 1013.1
20260502112305 49 210 2.0 4.0 0.00 0.00 0.00 75 1013.0
20260502111531 49 205 2.0 4.0 0.00 0.00 0.00 75 1013.0
20260502111029 49 205 2.0 4.0 0.00 0.00 0.00 76 1012.8
20260502110526 49 224 2.0 4.0 0.00 0.00 0.00 76 1013.0
20260502110012 49 224 2.0 4.0 0.00 0.00 0.00 76 1013.0
20260502105514 49 226 2.0 4.0 0.00 0.00 0.00 76 1012.9
20260502105010 49 221 3.0 5.0 0.00 0.00 0.00 77 1012.9
20260502104510 49 229 2.0 5.0 0.00 0.00 0.00 78 1012.9
20260502104236 48 211 1.0 3.0 0.00 0.00 0.00 78 1012.9
20260502103754 48 211 1.0 4.0 0.00 0.00 0.00 78 1012.8
20260502103000 48 211 1.0 4.0 0.00 0.00 0.00 78 1012.8
20260502102453 48 229 1.0 4.0 0.00 0.00 0.00 78 1012.8
20260502101945 48 229 2.0 4.0 0.00 0.00 0.00 78 1012.7
20260502101445 48 222 2.0 5.0 0.00 0.00 0.00 78 1012.8
20260502101217 48 221 3.0 5.0 0.00 0.00 0.00 78 1012.8
20260502100436 47 269 1.0 3.0 0.00 0.00 0.00 78 1012.7
20260502091344 47 221 1.0 3.0 0.00 0.00 0.00 79 1012.5
20260502090848 46 221 2.0 3.0 0.00 0.00 0.00 80 1012.5
20260502090603 46 214 0.0 2.0 0.00 0.00 0.00 80 1012.5
20260502071140 48 212 2.0 4.0 0.00 0.00 0.00 75 1012.7
20260502070642 48 208 2.0 4.0 0.00 0.00 0.00 75 1012.6
20260502070139 48 208 2.0 3.0 0.00 0.00 0.00 75 1012.6
20260502065637 48 208 2.0 4.0 0.00 0.00 0.00 76 1012.6
20260502065133 48 208 2.0 4.0 0.00 0.00 0.00 76 1012.7
20260502064633 47 203 2.0 4.0 0.00 0.00 0.00 77 1012.7
20260502064400 47 203 2.0 4.0 0.00 0.00 0.00 76 1012.7
20260502063615 47 203 2.0 4.0 0.00 0.00 0.00 76 1012.6
20260502063107 47 203 2.0 3.0 0.00 0.00 0.00 76 1012.6
20260502062609 47 203 1.0 3.0 0.00 0.00 0.00 76 1012.6
20260502062102 48 203 2.0 3.0 0.00 0.00 0.00 76 1012.7
20260502061833 47 203 2.0 3.0 0.00 0.00 0.00 76 1012.7
20260502061059 47 203 1.0 3.0 0.00 0.00 0.00 76 1012.6
20260502060553 47 203 1.0 3.0 0.00 0.00 0.00 77 1012.7
20260502060323 46 203 2.0 3.0 0.00 0.00 0.00 78 1012.8
20260502055536 46 203 2.0 2.0 0.00 0.00 0.00 78 1012.8
20260502055027 46 203 2.0 3.0 0.00 0.00 0.00 78 1012.8
20260502054527 46 203 1.0 3.0 0.00 0.00 0.00 78 1012.7
20260502054024 45 203 1.0 3.0 0.00 0.00 0.00 79 1012.7
20260502053518 45 203 2.0 3.0 0.00 0.00 0.00 79 1012.8
20260502053006 44 203 1.0 3.0 0.00 0.00 0.00 79 1012.9
20260502052505 44 203 1.0 2.0 0.00 0.00 0.00 79 1012.9
20260502051953 44 203 1.0 2.0 0.00 0.00 0.00 79 1012.9
20260502051455 44 203 1.0 2.0 0.00 0.00 0.00 79 1012.9
20260502050941 44 203 0.0 2.0 0.00 0.00 0.00 78 1012.8
20260502050442 44 203 1.0 2.0 0.00 0.00 0.00 78 1013.0
20260502045938 44 203 1.0 2.0 0.00 0.00 0.00 77 1012.9
20260502045432 44 203 1.0 2.0 0.00 0.00 0.00 77 1012.9
20260502044926 45 203 0.0 2.0 0.00 0.00 0.00 77 1012.9
20260502044650 45 203 0.0 2.0 0.00 0.00 0.00 77 1012.9
20260502044138 45 203 1.0 2.0 0.00 0.00 0.00 77 1012.9
20260502043408 45 203 1.0 2.0 0.00 0.00 0.00 77 1012.9
20260502042901 45 203 1.0 2.0 0.00 0.00 0.00 78 1013.0
20260502042354 45 203 1.0 2.0 0.00 0.00 0.00 78 1013.1
20260502041849 45 203 1.0 2.0 0.00 0.00 0.00 79 1013.0
20260502041338 45 203 1.0 2.0 0.00 0.00 0.00 79 1013.0
20260502040831 45 203 1.0 2.0 0.00 0.00 0.00 79 1013.1
20260502040325 45 203 1.0 2.0 0.00 0.00 0.00 79 1013.1
20260502035819 45 200 1.0 3.0 0.00 0.00 0.00 80 1013.0
20260502035321 44 200 1.0 3.0 0.00 0.00 0.00 80 1013.1
20260502034815 44 199 1.0 2.0 0.00 0.00 0.00 81 1013.0
20260502034309 44 199 0.0 2.0 0.00 0.00 0.00 82 1013.0
20260502033803 44 198 0.0 0.0 0.00 0.00 0.00 82 1013.1
20260502033258 43 198 0.0 0.0 0.00 0.00 0.00 82 1013.1
20260502033035 43 198 0.0 0.0 0.00 0.00 0.00 81 1013.1
20260502032242 43 198 0.0 0.0 0.00 0.00 0.00 81 1013.0
20260502032011 44 198 0.0 1.0 0.00 0.00 0.00 81 1012.9
20260502031240 44 198 0.0 1.0 0.00 0.00 0.00 81 1012.8
20260502030729 44 198 0.0 1.0 0.00 0.00 0.00 81 1012.7
20260502030223 44 198 0.0 1.0 0.00 0.01 0.00 81 1012.8
20260502025710 44 198 0.0 1.0 0.00 0.01 0.00 81 1012.7
20260502025444 44 198 0.0 0.0 0.00 0.01 0.00 81 1012.8
20260502024652 44 198 0.0 0.0 0.00 0.01 0.00 80 1012.8
20260502024146 44 198 0.0 2.0 0.00 0.01 0.00 80 1012.7
20260502023640 44 198 0.0 2.0 0.00 0.01 0.00 79 1012.7
20260502023140 45 198 1.0 2.0 0.00 0.01 0.00 79 1012.7
20260502022636 45 198 1.0 2.0 0.00 0.01 0.00 79 1012.7
20260502022135 45 198 0.0 0.0 0.00 0.01 0.00 79 1012.7
20260502021631 45 198 0.0 0.0 0.00 0.01 0.00 78 1012.7
20260502021130 46 198 0.0 2.0 0.00 0.01 0.00 78 1012.6
20260502020627 46 198 1.0 2.0 0.00 0.01 0.00 78 1012.8
20260502020121 46 198 1.0 2.0 0.00 0.01 0.00 77 1012.8
20260502015852 46 198 0.0 0.0 0.00 0.01 0.00 77 1012.8
20260502015102 46 198 0.0 0.0 0.00 0.01 0.00 76 1012.9
20260502014843 46 198 0.0 0.0 0.00 0.01 0.00 76 1012.8